Погода в Новом Порте

Россия / Ямало-Ненецкий автономный округ     67°41′37″N   72°53′48″E
темп.,
°C
ветер,
м/с
пор.,
м/с
влажн.,
%
обл.,
%
осадки,
мм/ч
давл.,
гПа
погр.,
м
10 августа, ср
ср1023:00+12зсз596852 0.0 1018381
02:00+9зсз610785 0.0 1019208
05:00+8зсз712825 0.0 1020287
08:00+11сз710670 0.0 1021523
11:00+13сз795885 0.0 1021831
14:00+12зсз7966100 0.2 1021710
17:00+12зсз6961100 0.3 1021699
20:00+11сз46709 0.0 1022181
11 августа, чт
чт1123:00+8зсз338691 0.0 102225
02:00+9зсз3384100 0.0 102252
05:00+9юз3579100 0.0 102285
08:00+11юз46715 0.0 1021290
11:00+12ююз67655 0.0 1020747
14:00+12ю786616 0.0 1019450
17:00+11ю6867100 0.0 1018182
20:00+10ююв577195 0.0 101678
12 августа, пт
пт1223:00+9ююз578071 0.0 101572
02:00+9ююз71198100 0.1 1013206
05:00+9ю71499100 0.8 1012267
08:00+9ю91798100 0.6 1009378
11:00+8ю91897100 1.2 1007393
14:00+8ю91791100 0.8 1005352
17:00+8ю61295100 1.4 1003208
20:00+8ю5899100 0.1 100192
13 августа, сб
сб1323:00+9ю511100100 0.5 1000155
02:00+9ю5799100 1.0 999108
05:00+9ююз22100100 2.1 99856
08:00+10ссз4699100 0.8 999180
11:00+11с4684100 0.9 1000324
14:00+10всв3482100 0.0 1001226
17:00+10ссв3685100 0.0 1002315
20:00+10ссв3484100 0.0 100243
14 августа, вс
вс1423:00+9ссз4784100 0.0 100391
02:00+9ссз5986100 0.0 1004119
05:00+8ссз51090100 0.0 1005164
08:00+11с6878100 0.0 1006324
11:00+12с6767100 0.0 1007723
14:00+11с5770100 0.0 1008729
17:00+12с586674 0.1 1010693
20:00+11с5767100 0.0 1011273